Year,Month,Day,Hour,Minute,Value (Times are PST for temperature in C)
2013,08,06,00,00,15.90
2013,08,06,00,02,15.80
2013,08,06,00,04,15.80
2013,08,06,00,05,15.80
2013,08,06,00,06,15.70
2013,08,06,00,07,15.70
2013,08,06,00,08,15.70
2013,08,06,00,10,15.70
2013,08,06,00,11,15.70
2013,08,06,00,12,15.60
2013,08,06,00,13,15.60
2013,08,06,00,15,15.60
2013,08,06,00,16,15.50
2013,08,06,00,17,15.40
2013,08,06,00,18,15.40
2013,08,06,00,20,15.40
2013,08,06,00,21,15.30
2013,08,06,00,22,15.30
2013,08,06,00,24,15.30
2013,08,06,00,25,15.30
2013,08,06,00,26,15.20
2013,08,06,00,28,15.20
2013,08,06,00,29,15.20
2013,08,06,00,30,15.10
2013,08,06,00,31,15.10
2013,08,06,00,33,15.10
2013,08,06,00,34,15.10
2013,08,06,00,35,15.00
2013,08,06,00,37,15.00
2013,08,06,00,38,15.00
2013,08,06,00,39,14.90
2013,08,06,00,41,14.90
2013,08,06,00,42,14.90
2013,08,06,00,43,14.90
2013,08,06,00,44,14.90
2013,08,06,00,46,14.90
2013,08,06,00,47,14.80
2013,08,06,00,49,14.80
2013,08,06,00,50,14.80
2013,08,06,00,51,14.80
2013,08,06,00,52,14.70
2013,08,06,00,54,14.70
2013,08,06,00,55,14.70
2013,08,06,00,56,14.70
2013,08,06,00,57,14.70
2013,08,06,00,59,14.70
2013,08,06,01,00,14.60
2013,08,06,01,01,14.60
2013,08,06,01,03,14.60
2013,08,06,01,04,14.60
2013,08,06,01,06,14.60
2013,08,06,01,07,14.60
2013,08,06,01,08,14.60
2013,08,06,01,10,14.60
2013,08,06,01,11,14.60
2013,08,06,01,12,14.50
2013,08,06,01,13,14.50
2013,08,06,01,15,14.50
2013,08,06,01,16,14.40
2013,08,06,01,17,14.40
2013,08,06,01,18,14.40
2013,08,06,01,20,14.40
2013,08,06,01,21,14.40
2013,08,06,01,22,14.40
2013,08,06,01,23,14.40
2013,08,06,01,25,14.30
2013,08,06,01,26,14.30
2013,08,06,01,28,14.30
2013,08,06,01,29,14.30
2013,08,06,01,30,14.30
2013,08,06,01,31,14.30
2013,08,06,01,32,14.30
2013,08,06,01,33,14.30
2013,08,06,01,34,14.30
2013,08,06,01,35,14.20
2013,08,06,01,37,14.20
2013,08,06,01,38,14.20
2013,08,06,01,39,14.20
2013,08,06,01,40,14.20
2013,08,06,01,41,14.20
2013,08,06,01,43,14.20
2013,08,06,01,44,14.20
2013,08,06,01,45,14.10
2013,08,06,01,47,14.20
2013,08,06,01,48,14.10
2013,08,06,01,49,14.10
2013,08,06,01,50,14.10
2013,08,06,01,52,14.10
2013,08,06,01,53,14.10
2013,08,06,01,54,14.10
2013,08,06,01,55,14.10
2013,08,06,01,57,14.00
2013,08,06,01,58,14.00
2013,08,06,01,59,14.00
2013,08,06,02,00,13.90
2013,08,06,02,02,13.90
2013,08,06,02,03,13.90
2013,08,06,02,04,13.90
2013,08,06,02,05,13.90
2013,08,06,02,07,13.90
2013,08,06,02,08,13.90
2013,08,06,02,09,13.80
2013,08,06,02,10,13.80
2013,08,06,02,11,13.80
2013,08,06,02,12,13.80
2013,08,06,02,13,13.80
2013,08,06,02,14,13.80
2013,08,06,02,15,13.90
2013,08,06,02,17,13.90
2013,08,06,02,18,13.90
2013,08,06,02,19,13.90
2013,08,06,02,20,13.90
2013,08,06,02,22,13.90
2013,08,06,02,23,13.90
2013,08,06,02,24,14.00
2013,08,06,02,25,14.00
2013,08,06,02,27,14.10
2013,08,06,02,29,14.10
2013,08,06,02,32,14.20
2013,08,06,02,33,14.20
2013,08,06,02,34,14.20
2013,08,06,02,35,14.20
2013,08,06,02,36,14.20
2013,08,06,02,37,14.20
2013,08,06,02,38,14.20
2013,08,06,02,39,14.20
2013,08,06,02,40,14.20
2013,08,06,02,41,14.10
2013,08,06,02,42,14.10
2013,08,06,02,43,14.10
2013,08,06,02,44,14.10
2013,08,06,02,46,14.00
2013,08,06,02,47,14.00
2013,08,06,02,48,14.00
2013,08,06,02,49,13.90
2013,08,06,02,51,13.90
2013,08,06,02,52,13.90
2013,08,06,02,54,13.90
2013,08,06,02,56,13.80
2013,08,06,02,57,13.80
2013,08,06,02,59,13.80
2013,08,06,03,01,13.80
2013,08,06,03,02,13.80
2013,08,06,03,03,13.80
2013,08,06,03,04,13.80
2013,08,06,03,05,13.80
2013,08,06,03,06,13.80
2013,08,06,03,07,13.70
2013,08,06,03,08,13.70
2013,08,06,03,09,13.70
2013,08,06,03,10,13.70
2013,08,06,03,11,13.70
2013,08,06,03,12,13.70
2013,08,06,03,13,13.70
2013,08,06,03,14,13.70
2013,08,06,03,16,13.60
2013,08,06,03,17,13.60
2013,08,06,03,18,13.60
2013,08,06,03,19,13.60
2013,08,06,03,20,13.50
2013,08,06,03,21,13.40
2013,08,06,03,22,13.40
2013,08,06,03,24,13.40
2013,08,06,03,26,13.30
2013,08,06,03,28,13.30
2013,08,06,03,29,13.20
2013,08,06,03,30,13.20
2013,08,06,03,31,13.20
2013,08,06,03,33,13.20
2013,08,06,03,34,13.20
2013,08,06,03,35,13.20
2013,08,06,03,37,13.10
2013,08,06,03,38,13.10
2013,08,06,03,39,13.10
2013,08,06,03,42,13.00
2013,08,06,03,43,12.90
2013,08,06,03,44,12.90
2013,08,06,03,45,12.90
2013,08,06,03,46,12.90
2013,08,06,03,47,12.80
2013,08,06,03,48,12.80
2013,08,06,03,49,12.80
2013,08,06,03,50,12.80
2013,08,06,03,51,12.80
2013,08,06,03,52,12.70
2013,08,06,03,53,12.70
2013,08,06,03,54,12.70
2013,08,06,03,56,12.70
2013,08,06,03,57,12.70
2013,08,06,03,58,12.70
2013,08,06,03,59,12.70
2013,08,06,04,02,12.60
2013,08,06,04,03,12.60
2013,08,06,04,04,12.60
2013,08,06,04,07,12.60
2013,08,06,04,08,12.60
2013,08,06,04,10,12.60
2013,08,06,04,11,12.60
2013,08,06,04,12,12.50
2013,08,06,04,13,12.50
2013,08,06,04,14,12.50
2013,08,06,04,15,12.50
2013,08,06,04,16,12.50
2013,08,06,04,17,12.50
2013,08,06,04,18,12.40
2013,08,06,04,19,12.40
2013,08,06,04,21,12.50
2013,08,06,04,22,12.50
2013,08,06,04,23,12.50
2013,08,06,04,24,12.50
2013,08,06,04,26,12.50
2013,08,06,04,27,12.50
2013,08,06,04,29,12.50
2013,08,06,04,31,12.50
2013,08,06,04,32,12.50
2013,08,06,04,34,12.50
2013,08,06,04,35,12.40
2013,08,06,04,36,12.40
2013,08,06,04,37,12.40
2013,08,06,04,39,12.40
2013,08,06,04,41,12.40
2013,08,06,04,42,12.30
2013,08,06,04,44,12.30
2013,08,06,04,46,12.30
2013,08,06,04,47,12.30
2013,08,06,04,49,12.20
2013,08,06,04,51,12.20
2013,08,06,04,52,12.10
2013,08,06,04,54,12.10
2013,08,06,04,56,12.10
2013,08,06,04,57,12.00
2013,08,06,04,58,12.00
2013,08,06,04,59,12.00
2013,08,06,05,00,11.90
2013,08,06,05,01,11.90
2013,08,06,05,02,11.90
2013,08,06,05,04,11.90
2013,08,06,05,06,11.90
2013,08,06,05,07,11.90
2013,08,06,05,09,11.90
2013,08,06,05,10,11.80
2013,08,06,05,11,11.80
2013,08,06,05,12,11.80
2013,08,06,05,13,11.80
2013,08,06,05,14,11.80
2013,08,06,05,15,11.80
2013,08,06,05,16,11.80
2013,08,06,05,17,11.80
2013,08,06,05,18,11.80
2013,08,06,05,19,11.80
2013,08,06,05,20,11.80
2013,08,06,05,21,11.80
2013,08,06,05,23,11.80
2013,08,06,05,24,11.70
2013,08,06,05,27,11.70
2013,08,06,05,28,11.70
2013,08,06,05,29,11.70
2013,08,06,05,31,11.60
2013,08,06,05,32,11.60
2013,08,06,05,33,11.60
2013,08,06,05,34,11.60
2013,08,06,05,37,11.60
2013,08,06,05,38,11.50
2013,08,06,05,39,11.50
2013,08,06,05,40,11.50
2013,08,06,05,41,11.40
2013,08,06,05,42,11.40
2013,08,06,05,43,11.40
2013,08,06,05,44,11.40
2013,08,06,05,45,11.40
2013,08,06,05,47,11.40
2013,08,06,05,48,11.40
2013,08,06,05,49,11.40
2013,08,06,05,51,11.30
2013,08,06,05,52,11.30
2013,08,06,05,53,11.30
2013,08,06,05,54,11.30
2013,08,06,05,55,11.30
2013,08,06,05,56,11.30
2013,08,06,05,57,11.20
2013,08,06,05,58,11.20
2013,08,06,05,59,11.20
2013,08,06,06,00,11.20
2013,08,06,06,01,11.10
2013,08,06,06,02,11.10
2013,08,06,06,03,11.10
2013,08,06,06,04,11.10
2013,08,06,06,05,11.10
2013,08,06,06,06,11.10
2013,08,06,06,07,11.00
2013,08,06,06,08,11.00
2013,08,06,06,09,11.00
2013,08,06,06,11,10.90
2013,08,06,06,12,10.90
2013,08,06,06,13,10.90
2013,08,06,06,14,10.90
2013,08,06,06,15,10.90
2013,08,06,06,16,10.90
2013,08,06,06,17,10.90
2013,08,06,06,18,10.90
2013,08,06,06,19,10.90
2013,08,06,06,21,10.90
2013,08,06,06,22,10.90
2013,08,06,06,23,10.90
2013,08,06,06,24,11.00
2013,08,06,06,25,11.00
2013,08,06,06,26,11.00
2013,08,06,06,27,11.00
2013,08,06,06,28,10.90
2013,08,06,06,29,11.00
2013,08,06,06,32,10.90
2013,08,06,06,33,10.90
2013,08,06,06,34,10.90
2013,08,06,06,37,10.90
2013,08,06,06,38,10.90
2013,08,06,06,39,10.90
2013,08,06,06,42,10.90
2013,08,06,06,43,10.90
2013,08,06,06,44,10.90
2013,08,06,06,45,10.90
2013,08,06,06,47,10.90
2013,08,06,06,48,10.90
2013,08,06,06,49,10.90
2013,08,06,06,52,10.90
2013,08,06,06,53,10.90
2013,08,06,06,54,10.90
2013,08,06,06,56,10.90
2013,08,06,06,57,10.90
2013,08,06,06,58,10.90
2013,08,06,06,59,10.90
2013,08,06,07,01,10.90
2013,08,06,07,02,11.00
2013,08,06,07,03,11.10
2013,08,06,07,05,11.10
2013,08,06,07,06,11.10
2013,08,06,07,07,11.20
2013,08,06,07,08,11.20
2013,08,06,07,09,11.20
2013,08,06,07,10,11.30
2013,08,06,07,11,11.30
2013,08,06,07,12,11.30
2013,08,06,07,13,11.40
2013,08,06,07,14,11.40
2013,08,06,07,16,11.50
2013,08,06,07,17,11.50
2013,08,06,07,18,11.60
2013,08,06,07,19,11.60
2013,08,06,07,20,11.70
2013,08,06,07,21,11.70
2013,08,06,07,22,11.70
2013,08,06,07,23,11.80
2013,08,06,07,24,11.80
2013,08,06,07,25,11.90
2013,08,06,07,27,12.00
2013,08,06,07,28,12.10
2013,08,06,07,29,12.20
2013,08,06,07,30,12.30
2013,08,06,07,32,12.30
2013,08,06,07,33,12.40
2013,08,06,07,34,12.60
2013,08,06,07,35,12.60
2013,08,06,07,37,12.70
2013,08,06,07,38,12.70
2013,08,06,07,39,12.90
2013,08,06,07,40,12.90
2013,08,06,07,41,13.00
2013,08,06,07,43,13.10
2013,08,06,07,44,13.20
2013,08,06,07,45,13.20
2013,08,06,07,46,13.30
2013,08,06,07,48,13.30
2013,08,06,07,49,13.30
2013,08,06,07,50,13.30
2013,08,06,07,51,13.40
2013,08,06,07,53,13.40
2013,08,06,07,54,13.50
2013,08,06,07,55,13.60
2013,08,06,07,56,13.60
2013,08,06,07,58,13.70
2013,08,06,07,59,13.70
2013,08,06,08,00,13.80
2013,08,06,08,01,13.90
2013,08,06,08,03,13.90
2013,08,06,08,04,14.00
2013,08,06,08,05,14.10
2013,08,06,08,06,14.20
2013,08,06,08,07,14.20
2013,08,06,08,09,14.20
2013,08,06,08,10,14.30
2013,08,06,08,11,14.30
2013,08,06,08,12,14.40
2013,08,06,08,13,14.30
2013,08,06,08,14,14.30
2013,08,06,08,15,14.30
2013,08,06,08,16,14.20
2013,08,06,08,17,14.10
2013,08,06,08,19,14.10
2013,08,06,08,20,13.90
2013,08,06,08,21,13.80
2013,08,06,08,22,13.80
2013,08,06,08,24,13.80
2013,08,06,08,25,13.80
2013,08,06,08,26,13.70
2013,08,06,08,27,13.70
2013,08,06,08,28,13.70
2013,08,06,08,30,13.60
2013,08,06,08,31,13.60
2013,08,06,08,32,13.60
2013,08,06,08,33,13.70
2013,08,06,08,34,13.70
2013,08,06,08,35,13.70
2013,08,06,08,36,13.70
2013,08,06,08,37,13.80
2013,08,06,08,38,13.80
2013,08,06,08,39,13.80
2013,08,06,08,40,13.80
2013,08,06,08,41,13.90
2013,08,06,08,42,13.90
2013,08,06,08,43,14.10
2013,08,06,08,45,14.10
2013,08,06,08,46,14.20
2013,08,06,08,47,14.20
2013,08,06,08,48,14.30
2013,08,06,08,50,14.30
2013,08,06,08,51,14.40
2013,08,06,08,52,14.40
2013,08,06,08,53,14.40
2013,08,06,08,54,14.40
2013,08,06,08,55,14.50
2013,08,06,08,56,14.60
2013,08,06,08,57,14.70
2013,08,06,08,58,14.80
2013,08,06,08,59,14.90
2013,08,06,09,00,15.00
2013,08,06,09,01,15.10
2013,08,06,09,02,15.20
2013,08,06,09,03,15.20
2013,08,06,09,05,15.30
2013,08,06,09,06,15.30
2013,08,06,09,07,15.30
2013,08,06,09,08,15.40
2013,08,06,09,09,15.40
2013,08,06,09,11,15.40
2013,08,06,09,12,15.40
2013,08,06,09,13,15.30
2013,08,06,09,14,15.40
2013,08,06,09,16,15.40
2013,08,06,09,17,15.40
2013,08,06,09,18,15.40
2013,08,06,09,19,15.40
2013,08,06,09,20,15.50
2013,08,06,09,21,15.60
2013,08,06,09,22,15.70
2013,08,06,09,23,15.70
2013,08,06,09,25,15.80
2013,08,06,09,26,15.80
2013,08,06,09,27,15.90
2013,08,06,09,28,15.90
2013,08,06,09,30,15.90
2013,08,06,09,31,16.10
2013,08,06,09,32,16.10
2013,08,06,09,33,16.10
2013,08,06,09,35,16.20
2013,08,06,09,36,16.30
2013,08,06,09,37,16.30
2013,08,06,09,38,16.30
2013,08,06,09,39,16.40
2013,08,06,09,41,16.40
2013,08,06,09,42,16.50
2013,08,06,09,43,16.50
2013,08,06,09,44,16.40
2013,08,06,09,46,16.40
2013,08,06,09,47,16.30
2013,08,06,09,48,16.30
2013,08,06,09,50,16.30
2013,08,06,09,51,16.30
2013,08,06,09,52,16.30
2013,08,06,09,53,16.30
2013,08,06,09,55,16.30
2013,08,06,09,56,16.30
2013,08,06,09,57,16.30
2013,08,06,09,58,16.20
2013,08,06,10,00,16.20
2013,08,06,10,01,16.20
2013,08,06,10,02,16.20
2013,08,06,10,04,16.20
2013,08,06,10,06,16.30
2013,08,06,10,08,16.30
2013,08,06,10,09,16.30
2013,08,06,10,11,16.50
2013,08,06,10,12,16.50
2013,08,06,10,13,16.60
2013,08,06,10,14,16.70
2013,08,06,10,17,16.80
2013,08,06,10,18,16.80
2013,08,06,10,19,16.90
2013,08,06,10,22,16.90
2013,08,06,10,23,16.80
2013,08,06,10,24,16.80
2013,08,06,10,26,16.80
2013,08,06,10,27,16.80
2013,08,06,10,28,16.80
2013,08,06,10,29,16.80
2013,08,06,10,30,16.70
2013,08,06,10,32,16.70
2013,08,06,10,33,16.60
2013,08,06,10,34,16.60
2013,08,06,10,35,16.50
2013,08,06,10,37,16.50
2013,08,06,10,38,16.60
2013,08,06,10,39,16.60
2013,08,06,10,40,16.70
2013,08,06,10,41,16.70
2013,08,06,10,42,16.90
2013,08,06,10,43,17.00
2013,08,06,10,44,17.10
2013,08,06,10,46,17.20
2013,08,06,10,47,17.30
2013,08,06,10,48,17.30
2013,08,06,10,50,17.40
2013,08,06,10,51,17.50
2013,08,06,10,52,17.60
2013,08,06,10,53,17.60
2013,08,06,10,54,17.60
2013,08,06,10,55,17.60
2013,08,06,10,56,17.50
2013,08,06,10,57,17.50
2013,08,06,10,59,17.50
2013,08,06,11,01,17.60
2013,08,06,11,02,17.70
2013,08,06,11,03,17.80
2013,08,06,11,05,17.80
2013,08,06,11,06,17.80
2013,08,06,11,07,17.90
2013,08,06,11,08,17.90
2013,08,06,11,10,18.00
2013,08,06,11,11,18.10
2013,08,06,11,12,18.10
2013,08,06,11,13,18.20
2013,08,06,11,15,18.20
2013,08,06,11,16,18.30
2013,08,06,11,17,18.30
2013,08,06,11,19,18.40
2013,08,06,11,21,18.60
2013,08,06,11,22,18.60
2013,08,06,11,24,18.60
2013,08,06,11,25,18.60
2013,08,06,11,26,18.70
2013,08,06,11,27,18.80
2013,08,06,11,29,18.80
2013,08,06,11,31,18.90
2013,08,06,11,32,18.90
2013,08,06,11,33,18.80
2013,08,06,11,34,18.80
2013,08,06,11,36,18.80
2013,08,06,11,37,18.70
2013,08,06,11,38,18.70
2013,08,06,11,39,18.70
2013,08,06,11,41,18.70
2013,08,06,11,42,18.70
2013,08,06,11,43,18.70
2013,08,06,11,44,18.60
2013,08,06,11,46,18.50
2013,08,06,11,48,18.60
2013,08,06,11,49,18.70
2013,08,06,11,51,18.80
2013,08,06,11,52,18.80
2013,08,06,11,53,18.80
2013,08,06,11,54,18.80
2013,08,06,11,56,18.80
2013,08,06,11,58,18.80
2013,08,06,11,59,19.00
2013,08,06,12,01,19.10
2013,08,06,12,03,19.10
2013,08,06,12,04,19.30
2013,08,06,12,06,19.40
2013,08,06,12,07,19.50
2013,08,06,12,08,19.60
2013,08,06,12,09,19.70
2013,08,06,12,11,19.70
2013,08,06,12,12,19.70
2013,08,06,12,13,19.70
2013,08,06,12,14,19.70
2013,08,06,12,16,19.90
2013,08,06,12,17,20.00
2013,08,06,12,18,20.10
2013,08,06,12,19,20.20
2013,08,06,12,21,20.30
2013,08,06,12,22,20.30
2013,08,06,12,23,20.40
2013,08,06,12,24,20.40
2013,08,06,12,26,20.50
2013,08,06,12,27,20.50
2013,08,06,12,28,20.60
2013,08,06,12,29,20.60
2013,08,06,12,31,20.80
2013,08,06,12,33,20.80
2013,08,06,12,34,20.90
2013,08,06,12,36,21.00
2013,08,06,12,37,21.10
2013,08,06,12,38,21.20
2013,08,06,12,39,21.30
2013,08,06,12,42,21.40
2013,08,06,12,43,21.40
2013,08,06,12,44,21.40
2013,08,06,12,46,21.40
2013,08,06,12,47,21.40
2013,08,06,12,48,21.40
2013,08,06,12,49,21.50
2013,08,06,12,51,21.60
2013,08,06,12,52,21.70
2013,08,06,12,54,21.80
2013,08,06,12,55,21.90
2013,08,06,12,56,22.00
2013,08,06,12,57,22.00
2013,08,06,12,58,21.90
2013,08,06,12,59,21.90
2013,08,06,13,01,21.90
2013,08,06,13,02,21.90
2013,08,06,13,03,21.80
2013,08,06,13,05,21.70
2013,08,06,13,06,21.60
2013,08,06,13,07,21.60
2013,08,06,13,08,21.50
2013,08,06,13,09,21.60
2013,08,06,13,11,21.70
2013,08,06,13,12,21.70
2013,08,06,13,13,21.70
2013,08,06,13,14,21.70
2013,08,06,13,16,21.60
2013,08,06,13,17,21.50
2013,08,06,13,18,21.40
2013,08,06,13,20,21.30
2013,08,06,13,21,21.30
2013,08,06,13,22,21.30
2013,08,06,13,23,21.30
2013,08,06,13,24,21.20
2013,08,06,13,26,21.30
2013,08,06,13,27,21.30
2013,08,06,13,29,21.30
2013,08,06,13,31,21.50
2013,08,06,13,32,21.60
2013,08,06,13,33,21.70
2013,08,06,13,35,21.80
2013,08,06,13,36,21.80
2013,08,06,13,37,21.90
2013,08,06,13,38,21.90
2013,08,06,13,40,22.00
2013,08,06,13,41,22.20
2013,08,06,13,42,22.20
2013,08,06,13,44,22.30
2013,08,06,13,45,22.30
2013,08,06,13,46,22.30
2013,08,06,13,47,22.30
2013,08,06,13,49,22.30
2013,08,06,13,50,22.30
2013,08,06,13,51,22.40
2013,08,06,13,52,22.50
2013,08,06,13,54,22.60
2013,08,06,13,55,22.70
2013,08,06,13,56,22.80
2013,08,06,13,58,22.90
2013,08,06,13,59,23.00
2013,08,06,14,00,23.10
2013,08,06,14,02,23.10
2013,08,06,14,03,23.10
2013,08,06,14,04,23.10
2013,08,06,14,05,23.10
2013,08,06,14,07,23.10
2013,08,06,14,08,23.10
2013,08,06,14,09,23.20
2013,08,06,14,10,23.10
2013,08,06,14,11,23.10
2013,08,06,14,13,23.10
2013,08,06,14,14,22.90
2013,08,06,14,15,22.90
2013,08,06,14,16,22.90
2013,08,06,14,18,22.90
2013,08,06,14,19,23.00
2013,08,06,14,20,23.10
2013,08,06,14,22,23.20
2013,08,06,14,23,23.20
2013,08,06,14,24,23.30
2013,08,06,14,25,23.30
2013,08,06,14,27,23.20
2013,08,06,14,29,23.30
2013,08,06,14,30,23.30
2013,08,06,14,32,23.30
2013,08,06,14,33,23.40
2013,08,06,14,34,23.40
2013,08,06,14,35,23.50
2013,08,06,14,36,23.60
2013,08,06,14,37,23.70
2013,08,06,14,38,23.80
2013,08,06,14,39,23.90
2013,08,06,14,41,24.20
2013,08,06,14,42,24.30
2013,08,06,14,43,24.40
2013,08,06,14,44,24.40
2013,08,06,14,46,24.50
2013,08,06,14,47,24.60
2013,08,06,14,48,24.60
2013,08,06,14,49,24.70
2013,08,06,14,52,24.80
2013,08,06,14,53,24.80
2013,08,06,14,54,24.90
2013,08,06,14,56,24.90
2013,08,06,14,57,24.90
2013,08,06,14,58,24.90
2013,08,06,14,59,25.00
2013,08,06,15,01,25.10
2013,08,06,15,02,25.10
2013,08,06,15,03,25.10
2013,08,06,15,04,25.00
2013,08,06,15,05,25.00
2013,08,06,15,06,25.00
2013,08,06,15,07,24.90
2013,08,06,15,08,24.80
2013,08,06,15,09,24.80
2013,08,06,15,11,24.70
2013,08,06,15,12,24.70
2013,08,06,15,13,24.80
2013,08,06,15,14,24.90
2013,08,06,15,15,24.90
2013,08,06,15,16,25.10
2013,08,06,15,17,25.20
2013,08,06,15,18,25.30
2013,08,06,15,19,25.30
2013,08,06,15,21,25.40
2013,08,06,15,22,25.40
2013,08,06,15,23,25.50
2013,08,06,15,24,25.50
2013,08,06,15,27,25.50
2013,08,06,15,28,25.60
2013,08,06,15,29,25.60
2013,08,06,15,30,25.60
2013,08,06,15,32,25.60
2013,08,06,15,33,25.60
2013,08,06,15,34,25.70
2013,08,06,15,36,25.60
2013,08,06,15,37,25.60
2013,08,06,15,38,25.60
2013,08,06,15,39,25.60
2013,08,06,15,41,25.70
2013,08,06,15,43,25.80
2013,08,06,15,44,25.90
2013,08,06,15,45,26.00
2013,08,06,15,46,26.10
2013,08,06,15,48,26.10
2013,08,06,15,49,26.10
2013,08,06,15,50,26.10
2013,08,06,15,51,26.10
2013,08,06,15,52,26.10
2013,08,06,15,53,26.10
2013,08,06,15,54,26.10
2013,08,06,15,56,26.10
2013,08,06,15,57,26.10
2013,08,06,15,58,26.20
2013,08,06,15,59,26.20
2013,08,06,16,01,26.20
2013,08,06,16,02,26.20
2013,08,06,16,03,26.20
2013,08,06,16,04,26.20
2013,08,06,16,07,26.20
2013,08,06,16,08,26.00
2013,08,06,16,09,25.90
2013,08,06,16,12,25.90
2013,08,06,16,13,26.00
2013,08,06,16,14,26.00
2013,08,06,16,15,25.90
2013,08,06,16,16,25.90
2013,08,06,16,17,25.90
2013,08,06,16,18,25.90
2013,08,06,16,19,25.80
2013,08,06,16,20,25.80
2013,08,06,16,21,25.80
2013,08,06,16,22,25.80
2013,08,06,16,23,25.70
2013,08,06,16,24,25.70
2013,08,06,16,25,25.60
2013,08,06,16,27,25.70
2013,08,06,16,28,25.70
2013,08,06,16,29,25.70
2013,08,06,16,30,25.70
2013,08,06,16,31,25.70
2013,08,06,16,32,25.70
2013,08,06,16,33,25.80
2013,08,06,16,34,25.80
2013,08,06,16,37,25.80
2013,08,06,16,38,25.70
2013,08,06,16,39,25.80
2013,08,06,16,40,25.80
2013,08,06,16,42,25.80
2013,08,06,16,43,25.80
2013,08,06,16,44,25.70
2013,08,06,16,47,25.70
2013,08,06,16,48,25.70
2013,08,06,16,49,25.70
2013,08,06,16,52,25.70
2013,08,06,16,53,25.70
2013,08,06,16,54,25.70
2013,08,06,16,55,25.70
2013,08,06,16,57,25.70
2013,08,06,16,58,25.60
2013,08,06,16,59,25.70
2013,08,06,17,02,25.70
2013,08,06,17,03,25.80
2013,08,06,17,04,25.80
2013,08,06,17,07,25.90
2013,08,06,17,08,25.80
2013,08,06,17,09,25.80
2013,08,06,17,10,25.80
2013,08,06,17,12,25.70
2013,08,06,17,13,25.80
2013,08,06,17,14,25.80
2013,08,06,17,16,25.70
2013,08,06,17,17,25.60
2013,08,06,17,18,25.60
2013,08,06,17,19,25.40
2013,08,06,17,21,25.30
2013,08,06,17,22,25.30
2013,08,06,17,23,25.30
2013,08,06,17,24,25.30
2013,08,06,17,25,25.40
2013,08,06,17,26,25.40
2013,08,06,17,27,25.40
2013,08,06,17,28,25.40
2013,08,06,17,29,25.40
2013,08,06,17,31,25.40
2013,08,06,17,32,25.40
2013,08,06,17,33,25.40
2013,08,06,17,35,25.40
2013,08,06,17,36,25.40
2013,08,06,17,37,25.40
2013,08,06,17,38,25.30
2013,08,06,17,39,25.30
2013,08,06,17,40,25.40
2013,08,06,17,41,25.40
2013,08,06,17,42,25.40
2013,08,06,17,44,25.40
2013,08,06,17,45,25.40
2013,08,06,17,46,25.40
2013,08,06,17,47,25.40
2013,08,06,17,48,25.50
2013,08,06,17,50,25.40
2013,08,06,17,51,25.30
2013,08,06,17,52,25.20
2013,08,06,17,53,25.10
2013,08,06,17,54,25.10
2013,08,06,17,55,25.10
2013,08,06,17,56,25.00
2013,08,06,17,57,25.00
2013,08,06,17,59,25.00
2013,08,06,18,00,25.10
2013,08,06,18,01,25.10
2013,08,06,18,02,25.20
2013,08,06,18,04,25.20
2013,08,06,18,05,25.30
2013,08,06,18,06,25.30
2013,08,06,18,08,25.30
2013,08,06,18,09,25.30
2013,08,06,18,10,25.30
2013,08,06,18,11,25.20
2013,08,06,18,12,25.20
2013,08,06,18,13,25.20
2013,08,06,18,14,25.10
2013,08,06,18,15,24.90
2013,08,06,18,16,24.90
2013,08,06,18,17,24.90
2013,08,06,18,18,24.80
2013,08,06,18,19,24.80
2013,08,06,18,20,24.80
2013,08,06,18,22,24.70
2013,08,06,18,23,24.70
2013,08,06,18,24,24.70
2013,08,06,18,25,24.70
2013,08,06,18,27,24.70
2013,08,06,18,28,24.60
2013,08,06,18,29,24.60
2013,08,06,18,31,24.50
2013,08,06,18,32,24.40
2013,08,06,18,33,24.40
2013,08,06,18,34,24.30
2013,08,06,18,37,24.20
2013,08,06,18,38,24.10
2013,08,06,18,39,23.90
2013,08,06,18,41,23.80
2013,08,06,18,42,23.80
2013,08,06,18,43,23.70
2013,08,06,18,44,23.70
2013,08,06,18,46,23.70
2013,08,06,18,47,23.70
2013,08,06,18,48,23.70
2013,08,06,18,50,23.70
2013,08,06,18,51,23.40
2013,08,06,18,52,23.30
2013,08,06,18,53,23.30
2013,08,06,18,55,23.20
2013,08,06,18,56,23.20
2013,08,06,18,57,23.20
2013,08,06,18,58,23.20
2013,08,06,18,59,23.20
2013,08,06,19,01,23.20
2013,08,06,19,02,23.20
2013,08,06,19,05,23.10
2013,08,06,19,06,23.10
2013,08,06,19,07,23.10
2013,08,06,19,08,23.10
2013,08,06,19,09,23.10
2013,08,06,19,11,23.00
2013,08,06,19,12,22.90
2013,08,06,19,13,22.80
2013,08,06,19,14,22.70
2013,08,06,19,16,22.70
2013,08,06,19,17,22.60
2013,08,06,19,18,22.60
2013,08,06,19,19,22.40
2013,08,06,19,21,22.30
2013,08,06,19,22,22.20
2013,08,06,19,23,22.10
2013,08,06,19,24,22.00
2013,08,06,19,26,21.90
2013,08,06,19,27,21.90
2013,08,06,19,29,21.80
2013,08,06,19,30,21.80
2013,08,06,19,31,21.80
2013,08,06,19,33,21.80
2013,08,06,19,34,21.80
2013,08,06,19,35,21.70
2013,08,06,19,36,21.70
2013,08,06,19,38,21.70
2013,08,06,19,39,21.60
2013,08,06,19,40,21.60
2013,08,06,19,41,21.50
2013,08,06,19,42,21.50
2013,08,06,19,44,21.40
2013,08,06,19,45,21.40
2013,08,06,19,46,21.30
2013,08,06,19,47,21.30
2013,08,06,19,49,21.30
2013,08,06,19,50,21.20
2013,08,06,19,51,21.20
2013,08,06,19,52,21.10
2013,08,06,19,54,21.10
2013,08,06,19,55,21.10
2013,08,06,19,56,21.10
2013,08,06,19,57,21.00
2013,08,06,19,58,21.00
2013,08,06,20,00,20.90
2013,08,06,20,01,20.90
2013,08,06,20,02,20.80
2013,08,06,20,03,20.80
2013,08,06,20,05,20.70
2013,08,06,20,06,20.70
2013,08,06,20,07,20.60
2013,08,06,20,09,20.60
2013,08,06,20,10,20.50
2013,08,06,20,11,20.40
2013,08,06,20,13,20.40
2013,08,06,20,14,20.30
2013,08,06,20,15,20.20
2013,08,06,20,16,20.20
2013,08,06,20,18,20.10
2013,08,06,20,19,20.10
2013,08,06,20,20,20.00
2013,08,06,20,22,19.90
2013,08,06,20,23,19.90
2013,08,06,20,24,19.80
2013,08,06,20,26,19.80
2013,08,06,20,27,19.80
2013,08,06,20,29,19.70
2013,08,06,20,32,19.60
2013,08,06,20,34,19.50
2013,08,06,20,36,19.40
2013,08,06,20,37,19.30
2013,08,06,20,38,19.30
2013,08,06,20,39,19.30
2013,08,06,20,41,19.20
2013,08,06,20,42,19.20
2013,08,06,20,43,19.10
2013,08,06,20,44,19.10
2013,08,06,20,46,19.00
2013,08,06,20,47,18.90
2013,08,06,20,48,18.90
2013,08,06,20,49,18.80
2013,08,06,20,51,18.70
2013,08,06,20,52,18.60
2013,08,06,20,53,18.60
2013,08,06,20,54,18.50
2013,08,06,20,56,18.40
2013,08,06,20,57,18.40
2013,08,06,20,58,18.30
2013,08,06,20,59,18.30
2013,08,06,21,01,18.20
2013,08,06,21,02,18.20
2013,08,06,21,03,18.20
2013,08,06,21,04,18.10
2013,08,06,21,06,18.10
2013,08,06,21,07,18.10
2013,08,06,21,08,18.00
2013,08,06,21,09,18.00
2013,08,06,21,11,17.90
2013,08,06,21,12,17.90
2013,08,06,21,13,17.90
2013,08,06,21,14,17.90
2013,08,06,21,16,17.90
2013,08,06,21,17,17.90
2013,08,06,21,18,17.90
2013,08,06,21,19,17.90
2013,08,06,21,21,17.90
2013,08,06,21,22,17.90
2013,08,06,21,23,17.90
2013,08,06,21,24,17.90
2013,08,06,21,26,17.90
2013,08,06,21,27,17.90
2013,08,06,21,28,17.90
2013,08,06,21,29,17.90
2013,08,06,21,31,17.90
2013,08,06,21,32,17.90
2013,08,06,21,33,17.90
2013,08,06,21,35,17.90
2013,08,06,21,36,17.90
2013,08,06,21,37,17.90
2013,08,06,21,38,17.90
2013,08,06,21,39,17.90
2013,08,06,21,41,17.80
2013,08,06,21,42,17.80
2013,08,06,21,44,17.80
2013,08,06,21,46,17.80
2013,08,06,21,47,17.80
2013,08,06,21,49,17.80
2013,08,06,21,51,17.70
2013,08,06,21,52,17.70
2013,08,06,21,54,17.70
2013,08,06,21,56,17.70
2013,08,06,21,57,17.70
2013,08,06,21,58,17.70
2013,08,06,21,59,17.60
2013,08,06,22,03,17.60
2013,08,06,22,04,17.60